Dewpoint
59 58 57 57 56 56 55 54 54 53 52 52 52 52 53 52 52 52 53 53 51 54 53 53 52 53 53 54 54 54 54 54 54 54 54 54 54 55 56 57 58 59 60
59 59 57 57 56 55 55 55 54 53 52 51 49 49 49 50 50 51 50 50 51 53 54 53 52 52 53 54 53 53 53 53 53 53 54 53 53 54 56 56 56 56 57
60 59 58 56 56 56 56 55 54 52 50 48 47 48 49 48 49 49 49 49 49 51 52 53 53 53 53 53 53 53 53 52 52 53 54 55 55 54 53 55 56 56 56
60 59 58 57 57 56 55 54 52 49 46 43 42 42 43 44 44 46 47 47 48 47 50 53 52 53 53 52 52 52 52 52 52 52 53 54 55 55 55 54 53 55 56
59 58 57 57 57 56 55 53 50 47 43 40 39 37 38 38 39 40 41 44 46 48 47 50 50 50 52 52 51 51 51 51 52 52 52 52 54 55 55 55 55 55 54
58 57 57 56 56 55 54 52 49 46 44 41 39 36 37 39 39 38 36 38 43 46 48 48 48 47 48 51 51 51 50 50 50 51 52 51 53 54 54 53 53 54 55
57 56 55 54 54 53 51 50 48 45 42 42 40 34 34 34 35 37 38 38 40 44 47 48 47 46 45 49 50 51 51 50 49 49 50 51 52 53 53 53 54 55 56
56 54 54 53 52 51 50 49 47 44 43 42 38 36 30 30 34 39 39 39 40 44 46 47 47 46 46 46 47 51 50 50 49 49 49 50 50 52 52 52 56 57 57
54 53 52 51 50 49 49 48 47 45 43 42 42 37 31 28 30 36 40 41 42 43 45 46 47 46 46 46 47 48 50 50 49 49 48 49 49 51 52 51 53 54 55
52 51 50 50 50 50 49 48 46 46 45 43 43 41 40 36 31 29 33 36 42 42 43 45 46 46 46 45 46 47 49 49 49 49 48 48 49 52 52 50 50 50 50
54 52 51 51 51 50 49 49 48 47 46 45 44 43 42 40 40 37 32 31 36 37 41 43 44 45 43 44 45 47 48 49 49 49 48 48 47 50 52 52 51 50 50
51 51 51 51 51 50 50 50 49 49 48 46 45 44 43 41 39 39 37 36 35 35 36 38 40 41 42 43 44 45 48 49 49 48 48 48 47 50 50 51 51 51 51
48 48 48 49 49 49 50 50 49 49 49 48 47 46 45 44 42 40 39 38 37 36 36 38 38 40 41 43 43 46 48 48 48 48 48 48 48 50 47 48 49 50 49
45 46 47 47 48 48 49 49 50 50 50 49 48 48 46 45 44 43 41 40 38 38 38 37 38 41 42 43 44 47 47 47 47 47 48 48 50 49 46 46 48 47 47
35 36 38 39 41 44 46 48 48 48 48 49 48 48 47 46 45 45 44 43 41 38 38 38 38 41 43 44 45 46 46 46 46 47 47 49 50 49 48 47 47 47 45
30 30 30 31 32 33 35 39 43 45 46 47 47 47 47 47 46 46 45 44 43 41 39 39 38 41 45 44 46 46 46 45 45 45 47 48 49 49 47 47 47 46 45
27 27 27 27 28 28 29 30 32 35 38 41 44 45 46 46 46 46 45 44 44 43 41 41 41 41 43 45 45 46 46 45 44 45 45 47 48 48 47 47 47 46 45
27 28 28 27 27 28 30 30 31 35 36 37 38 41 43 45 45 45 46 45 44 44 42 41 42 42 42 44 45 45 46 45 44 44 44 45 46 47 48 47 46 45 43
27 28 29 29 29 30 30 31 32 33 33 34 35 37 37 39 42 44 45 45 44 44 43 43 42 43 42 44 44 45 45 44 44 44 43 43 44 46 47 47 46 44 42
27 28 28 29 29 30 30 30 32 33 33 34 34 35 36 37 38 39 41 44 44 44 44 43 42 42 42 43 43 42 41 43 43 42 41 41 43 45 48 48 46 43 40
27 27 28 28 29 29 28 32 33 33 33 33 33 33 35 36 38 40 42 43 42 43 43 42 41 41 41 40 40 42 40 41 41 41 40 41 41 43 46 46 43 41 39
26 26 26 27 28 28 30 32 34 34 33 33 33 34 34 36 38 38 38 41 44 43 42 41 41 40 40 40 41 40 40 38 36 40 39 38 38 41 41 39 39 38 36
25 25 26 27 27 29 30 32 33 33 33 34 33 33 33 33 34 35 36 38 40 43 44 44 41 41 40 41 41 40 39 38 37 39 37 34 35 37 40 41 39 38 36
25 25 26 26 27 28 30 31 33 34 34 34 35 35 34 34 36 37 38 39 40 42 42 44 43 41 40 41 41 40 39 37 35 35 35 31 32 34 38 39 39 38 35
24 24 25 26 27 27 29 31 31 32 34 34 35 35 35 35 36 37 38 39 40 38 41 41 41 41 41 41 41 38 35 34 32 33 34 31 31 31 32 35 37 37 33
22 24 25 26 27 27 28 30 31 32 32 33 34 36 36 37 38 39 40 40 35 34 34 35 35 36 37 37 37 39 37 34 32 31 33 31 31 31 28 30 33 34 33
Wind_Speed
3 3 2 1 1 1 2 3 3 4 4 4 3 3 3 3 3 3 3 1 2 2 3 4 5 5 5 6 6 7 8 10 11 11 11 11 12 12 13 14 13 12 12
3 3 2 1 1 0 1 3 4 4 4 4 4 4 5 5 5 5 4 2 0 1 2 3 4 4 4 4 5 5 6 9 10 11 11 12 13 13 13 14 14 14 14
4 4 3 3 2 1 1 2 2 3 5 5 5 5 5 5 6 6 5 4 4 4 1 2 3 3 3 4 3 5 7 8 10 11 11 12 13 13 14 15 14 14 15
4 3 3 3 3 3 3 3 3 5 5 5 6 6 7 7 7 7 6 6 5 5 5 1 1 2 3 4 4 6 6 8 9 11 12 13 14 14 14 14 15 15 15
4 3 3 2 3 3 3 3 4 4 6 6 6 7 7 8 9 8 9 8 7 7 6 4 2 2 3 4 5 6 6 8 10 11 13 14 14 13 12 14 15 16 16
5 3 2 1 2 4 4 3 4 4 6 7 8 10 9 9 9 9 10 9 8 8 7 6 6 6 5 4 4 5 6 8 9 10 12 14 14 13 16 17 18 19 16
5 4 3 2 3 4 5 4 4 5 6 4 8 7 8 8 9 8 8 9 9 9 9 8 7 6 5 6 6 5 6 7 9 10 11 13 14 12 15 17 18 16 12
3 2 3 3 3 4 5 5 5 6 5 4 5 7 6 4 4 7 7 8 10 9 10 10 9 9 8 7 6 6 7 8 9 11 12 13 14 11 11 14 12 11 9
1 2 2 3 4 4 5 5 5 6 8 5 6 5 5 5 8 4 6 8 9 10 10 11 11 11 10 9 7 9 9 8 9 10 12 13 14 11 7 6 8 7 7
2 2 1 2 4 5 7 7 6 7 7 10 6 9 10 8 6 11 4 6 8 12 12 11 11 12 12 11 10 10 8 9 9 10 13 13 14 10 6 3 6 8 7
3 2 1 2 3 5 7 7 8 8 8 10 10 10 9 10 11 12 18 13 7 11 11 12 13 12 11 11 11 11 10 9 9 10 12 14 15 12 10 7 3 1 3
6 7 6 6 6 7 7 8 8 9 11 12 11 12 13 11 11 12 15 19 19 16 13 13 13 14 12 11 11 10 9 9 9 10 12 14 14 13 11 8 5 2 1
6 10 11 10 9 9 10 10 10 9 11 14 15 15 14 16 16 16 17 20 20 18 14 14 15 14 12 11 12 11 11 9 9 10 12 14 14 9 6 6 6 3 2
10 11 10 10 11 10 10 10 10 10 11 13 16 16 17 16 14 15 17 17 20 20 18 18 10 13 12 11 9 9 10 10 9 9 11 12 15 11 9 8 6 4 4
9 10 10 11 11 11 11 11 10 12 12 13 14 15 16 17 17 16 17 18 19 21 22 17 16 12 12 10 11 11 11 9 9 8 10 11 14 12 11 7 7 7 4
8 8 10 10 11 11 12 12 11 12 13 14 14 15 16 16 17 16 17 18 18 22 26 19 17 12 12 12 11 12 11 8 10 6 8 10 11 13 12 10 11 10 8
9 9 10 11 11 13 13 13 14 14 15 16 17 17 18 19 17 16 16 17 19 19 26 24 20 15 14 13 10 12 11 13 10 9 6 8 9 10 13 14 13 11 10
9 10 10 11 12 13 14 15 16 16 17 19 20 20 22 18 21 18 17 19 19 20 21 28 22 16 19 15 12 13 11 11 10 8 6 6 8 10 11 17 17 15 13
9 9 9 10 11 12 13 13 13 15 17 18 19 21 22 21 21 19 21 21 20 21 22 24 25 16 16 9 10 8 11 12 11 7 6 8 9 10 15 18 21 16 14
7 7 8 9 10 11 11 12 15 16 17 17 19 21 22 23 24 23 22 23 23 23 21 22 22 15 12 9 13 14 12 11 11 8 6 5 8 10 13 18 19 19 16
9 10 11 11 12 12 10 17 18 19 20 21 22 22 22 23 27 27 26 27 25 24 23 21 22 20 16 11 19 10 12 10 9 5 4 3 4 8 4 13 18 20 18
10 11 12 13 15 13 16 20 20 20 21 23 24 23 24 25 24 27 29 31 30 30 28 24 22 22 23 16 11 11 9 7 5 6 6 2 3 6 11 14 19 17 17
13 13 13 13 15 15 18 22 24 20 22 21 22 23 25 22 26 26 29 31 29 33 33 29 27 23 13 11 13 13 7 8 7 6 5 2 4 6 9 14 20 19 16
13 14 14 14 16 16 21 24 26 23 22 23 22 22 25 30 28 28 29 29 26 23 20 19 16 10 10 10 10 8 9 7 6 6 4 4 1 6 12 11 16 17 15
14 14 14 16 16 18 20 22 22 20 23 25 24 24 25 30 32 32 30 28 17 3 11 12 13 12 10 8 10 11 11 13 5 4 2 5 4 7 5 8 11 14 13
13 14 15 14 16 18 18 21 21 18 24 24 26 24 27 29 33 35 29 21 8 8 16 13 9 11 9 9 7 3 10 10 6 4 6 6 10 6 5 3 7 7 9
Wind_Direction
142 145 130 100 74 59 3 10 3 350 336 341 323 306 291 286 279 274 275 137 342 15 20 19 10 10 10 14 14 19 14 5 356 351 346 339 330 330 323 322 319 320 318
187 185 171 173 149 344 356 347 344 333 318 308 295 291 287 279 278 276 279 238 230 19 5 356 352 351 345 342 344 357 0 355 348 345 342 337 332 322 322 320 317 313 311
197 208 213 214 204 196 265 283 292 300 297 297 287 284 277 275 271 267 264 269 199 192 239 332 337 331 320 314 331 341 346 348 344 340 341 340 332 321 314 315 315 311 305
208 222 244 245 218 229 265 286 307 303 298 296 295 286 276 269 266 263 257 253 246 247 207 207 326 319 317 321 326 330 339 340 337 335 331 337 339 334 319 311 306 306 302
214 242 245 222 219 251 267 295 297 312 308 302 295 286 273 266 261 256 253 248 248 247 246 168 235 280 301 301 311 325 336 337 332 329 328 327 333 339 343 333 319 305 293
207 226 245 252 251 262 270 276 293 295 301 305 299 288 273 259 255 253 255 248 247 240 237 239 227 220 238 270 286 304 319 323 324 324 322 323 330 324 322 322 318 309 298
198 209 229 241 260 279 291 287 291 291 293 298 300 299 279 260 249 247 249 245 240 237 238 237 243 252 238 234 254 269 294 303 317 322 320 319 316 329 328 324 319 315 297
187 230 263 272 274 280 274 275 275 293 295 301 308 304 312 273 245 243 244 245 244 237 240 241 245 250 256 262 261 250 273 291 311 321 320 313 310 325 323 340 10 25 53
192 240 272 291 291 280 282 278 265 261 285 274 254 273 293 284 326 203 243 245 244 242 245 243 245 250 256 260 255 249 245 275 296 308 313 310 305 312 316 343 23 31 51
158 180 227 248 281 286 280 279 270 262 258 274 269 249 257 277 293 298 226 252 250 251 249 246 248 249 249 254 252 263 259 263 282 297 303 302 295 304 266 118 63 59 64
77 71 273 271 292 280 280 281 280 270 269 271 274 274 262 259 253 257 283 281 253 255 254 249 248 246 243 248 252 250 231 249 271 288 295 296 288 294 263 250 298 4 19
42 37 0 355 330 305 293 291 285 274 269 264 263 263 260 259 269 254 260 273 276 278 269 259 245 247 249 250 248 248 236 247 268 280 285 285 284 285 268 233 200 194 39
26 14 8 353 334 322 310 302 291 278 274 268 264 259 253 250 254 259 262 270 274 273 270 258 251 239 237 240 243 221 225 240 258 275 283 285 292 268 266 244 228 222 125
32 15 5 358 351 342 329 314 302 292 283 276 273 266 264 260 249 242 242 257 269 267 257 262 258 243 230 230 235 197 230 223 246 266 279 284 288 258 247 235 203 148 118
25 14 8 0 354 349 343 333 317 309 300 291 283 279 272 268 265 258 252 250 251 267 267 262 249 232 233 218 219 216 230 216 234 263 284 289 289 249 229 228 176 151 132
28 15 7 360 353 348 342 335 324 316 309 300 294 289 284 279 273 267 255 248 242 246 264 255 250 219 205 211 205 214 224 223 236 251 276 289 296 264 239 216 174 164 151
21 12 2 353 347 342 341 334 327 320 313 305 297 293 289 287 277 265 256 248 247 238 250 261 250 229 209 206 196 217 213 225 225 206 245 281 295 291 251 210 181 168 149
15 4 356 351 346 342 339 335 329 325 322 317 312 306 302 298 292 284 270 261 250 247 244 259 254 220 212 212 208 201 207 225 232 204 225 275 291 297 285 218 171 161 148
8 359 352 345 338 333 331 330 329 321 315 310 306 302 297 292 288 287 283 270 260 255 249 249 259 229 213 199 205 201 202 212 226 219 233 264 277 286 289 214 163 145 143
349 345 339 331 328 327 327 335 327 319 313 308 305 301 297 294 291 288 283 278 277 263 256 249 250 230 203 197 202 202 209 207 213 206 219 252 281 275 292 178 144 141 136
349 343 339 336 332 329 330 331 328 322 316 313 308 304 300 298 296 291 286 281 275 269 257 250 242 234 218 184 201 191 208 205 200 210 217 239 296 245 119 144 139 135 136
352 346 345 337 330 328 327 326 325 320 316 313 312 308 305 302 298 297 294 287 272 272 269 254 246 235 221 195 168 193 197 166 187 178 200 195 335 160 132 132 140 136 131
346 342 336 332 325 320 319 321 320 315 312 307 305 302 298 295 294 293 289 282 281 270 262 259 254 232 198 161 160 169 174 190 189 137 144 123 9 108 115 133 134 128 123
337 331 327 325 320 317 320 320 320 312 308 309 310 303 300 299 293 292 286 285 283 266 268 258 237 176 144 155 163 159 182 138 91 108 139 132 51 75 94 110 122 120 121
327 327 324 321 317 313 316 318 320 315 310 311 311 307 300 291 291 292 288 288 276 164 88 82 91 99 112 117 146 144 153 153 139 165 144 122 160 100 81 110 114 116 118
315 320 317 311 310 307 311 319 323 319 314 310 308 303 304 295 294 292 286 277 175 104 95 86 72 72 82 74 51 156 167 168 140 159 183 140 149 140 114 38 98 102 116